Hill City, KS

8:30 PM CST on February 25, 2017 (GMT -0600)
Hill City Municipal

Weather History for KHLC - October, 2011

Change the Weather History Date:

Saturday, October 8, 2011

  Actual Average Record
Temperature  
Mean Temperature 64 °F 57 °F  
Max Temperature 72 °F 72 °F 96 °F (1934)
Min Temperature 56 °F 43 °F 14 °F (2000)
Degree Days  
Heating Degree Days 1    
Growing Degree Days 14 (Base 50)    
Moisture  
Dew Point 58 °F    
Average Humidity 89    
Maximum Humidity 100    
Minimum Humidity 72    
Precipitation  
Precipitation 1.28 in 0.05 in 1.28 in (2011)
Month to date precipitation 1.83 0.41  
Year to date precipitation 18.64 20.17  
Sea Level Pressure  
Sea Level Pressure 29.93 in    
Wind  
Wind Speed 11 mph (ESE)    
Max Wind Speed 23 mph    
Max Gust Speed 40 mph    
Visibility 8 miles    
Events Rain , Thunderstorm    
T = Trace of Precipitation, MM = Missing Value Source: NWS Daily Summary

Daily Weather History Graph

Daily Weather History Graph

Search for Another Location

Airport or City:

Trip Planner

Search our weather history database for the weather conditions in past years. The results will help you decide how hot, cold, wet, or windy it might be!

Date:

Astronomy

Oct. 08, 2011 Rise Set
Actual Time 7:41 AM CDT 7:11 PM CDT
Civil Twilight 7:15 AM CDT 7:38 PM CDT
Nautical Twilight 6:44 AM CDT 8:09 PM CDT
Astronomical Twilight 6:12 AM CDT 8:40 PM CDT
Moon 5:21 PM CDT (10/8) 4:31 AM CDT (10/8)
Length of Visible Light 12h 22m
Length of Day
11h 29m
Waxing Gibbous, 90% of the Moon is Illuminated
Oct 8
Waxing Gibbous
Oct 11
Full
Oct 19
Last Quarter
Oct 26
New
Nov 2
First Quarter

Hourly Weather History & Observations

Time (CDT) Temp. Dew Point Humidity Pressure Visibility Wind Dir Wind Speed Gust Speed Precip Events Conditions
12:20 AM 62.6 °F 53.6 °F 72% 29.87 in 10.0 mi NNW 9.2 mph - N/A   Overcast
12:53 AM 64.9 °F 55.9 °F 73% 29.81 in 10.0 mi SE 8.1 mph - N/A   Overcast
1:14 AM 71.6 °F 62.6 °F 73% 29.87 in 10.0 mi South 16.1 mph 27.6 mph N/A   Overcast
1:46 AM 71.6 °F 62.6 °F 73% 29.86 in 10.0 mi South 12.7 mph 26.5 mph N/A   Overcast
2:51 AM 71.6 °F 62.6 °F 73% 29.85 in 10.0 mi SSE 19.6 mph 32.2 mph N/A   Overcast
2:53 AM 71.1 °F 62.1 °F 73% 29.78 in 10.0 mi SSE 20.7 mph 33.4 mph N/A   Overcast
3:13 AM 62.6 °F 57.2 °F 82% 29.91 in 9.0 mi SW 19.6 mph 40.3 mph 0.01 in Rain Light Rain
3:39 AM 60.8 °F 59.0 °F 94% 29.90 in 8.0 mi NW 10.4 mph - 0.06 in Rain , Thunderstorm Light Thunderstorms and Rain
3:53 AM 60.1 °F 57.9 °F 93% 29.85 in 4.0 mi NNW 5.8 mph - 0.12 in Rain , Thunderstorm Heavy Thunderstorms and Rain
4:26 AM 60.8 °F 57.2 °F 88% 29.90 in 10.0 mi NNE 8.1 mph - 0.08 in Rain Light Rain
4:50 AM 60.8 °F 57.2 °F 88% 29.89 in 10.0 mi NE 9.2 mph - 0.08 in Rain , Thunderstorm Light Rain
4:51 AM 60.1 °F 57.9 °F 93% 29.83 in 10.0 mi NE 9.2 mph - 0.08 in Rain , Thunderstorm Light Rain
5:06 AM 60.8 °F 57.2 °F 88% 29.89 in 10.0 mi NE 9.2 mph - 0.00 in Rain Light Rain
5:26 AM 60.8 °F 57.2 °F 88% 29.94 in 8.0 mi WNW 11.5 mph - 0.02 in Rain , Thunderstorm Rain
5:43 AM 60.8 °F 57.2 °F 88% 29.95 in 1.8 mi Calm Calm - 0.19 in Rain , Thunderstorm Heavy Rain
5:51 AM 59.0 °F 57.2 °F 94% 29.95 in 2.0 mi North 4.6 mph - N/A Rain , Thunderstorm Heavy Rain
6:01 AM 59.0 °F 57.2 °F 94% 29.92 in 3.0 mi NNE 6.9 mph - 0.03 in Rain Rain
6:16 AM 59.0 °F 57.2 °F 94% 29.95 in 4.0 mi Calm Calm - 0.10 in Rain , Thunderstorm Heavy Rain
6:27 AM 59.0 °F 57.2 °F 94% 29.97 in 2.5 mi Calm Calm - 0.16 in Rain , Thunderstorm Thunderstorms and Rain
6:43 AM 59.0 °F 57.2 °F 94% 29.96 in 4.0 mi ENE 4.6 mph - 0.29 in Rain Heavy Rain
7:07 AM 59.0 °F 57.2 °F 94% 29.95 in 6.0 mi ENE 6.9 mph - 0.02 in Rain Rain
8:12 AM 59.0 °F 57.2 °F 94% 29.97 in 4.0 mi ESE 10.4 mph - 0.06 in Rain , Thunderstorm Heavy Thunderstorms and Rain
8:29 AM 57.2 °F 57.2 °F 100% 29.96 in 5.0 mi East 9.2 mph - 0.10 in Rain Rain
8:53 AM 57.9 °F 57.9 °F 100% 29.94 in 5.0 mi East 10.4 mph - 0.15 in Rain Rain
9:53 AM 59.0 °F 57.9 °F 96% 29.94 in 7.0 mi East 18.4 mph - 0.13 in Rain Light Rain
10:53 AM 59.0 °F 57.9 °F 96% 29.94 in 10.0 mi East 18.4 mph - 0.08 in Rain Light Rain
11:17 AM 59.0 °F 57.2 °F 94% 30.00 in 9.0 mi East 16.1 mph 21.9 mph 0.01 in Rain Light Rain
11:24 AM 59.0 °F 57.2 °F 94% 30.01 in 6.0 mi ESE 15.0 mph 25.3 mph 0.02 in Rain Light Rain
11:53 AM 59.0 °F 57.9 °F 96% 29.88 in 7.0 mi East 23.0 mph 31.1 mph 0.05 in Rain Light Rain
12:04 PM 59.0 °F 57.2 °F 94% 29.92 in 10.0 mi East 21.9 mph 33.4 mph 0.01 in Rain Light Rain
1:53 PM 60.1 °F 57.9 °F 93% 29.88 in 10.0 mi ESE 12.7 mph 21.9 mph 0.00 in   Overcast
2:26 PM 60.8 °F 57.2 °F 88% 29.93 in 10.0 mi SSE 15.0 mph 23.0 mph N/A   Mostly Cloudy
2:35 PM 62.6 °F 57.2 °F 82% 29.93 in 10.0 mi SE 18.4 mph 23.0 mph N/A   Scattered Clouds
2:53 PM 61.0 °F 57.9 °F 90% 29.91 in 10.0 mi SSE 18.4 mph 25.3 mph N/A   Mostly Cloudy
3:38 PM 60.8 °F 57.2 °F 88% 29.96 in 10.0 mi SSE 20.7 mph 27.6 mph N/A   Overcast
3:53 PM 61.0 °F 57.0 °F 87% 29.94 in 10.0 mi SSE 17.3 mph 21.9 mph N/A   Overcast
4:53 PM 62.1 °F 57.9 °F 86% 29.95 in 10.0 mi SSE 16.1 mph 20.7 mph N/A   Overcast
5:46 PM 62.6 °F 57.2 °F 82% 29.97 in 10.0 mi SSE 13.8 mph 21.9 mph N/A   Mostly Cloudy
7:03 PM 60.8 °F 57.2 °F 88% 30.00 in 10.0 mi SSE 9.2 mph - N/A   Scattered Clouds
7:53 PM 60.1 °F 57.0 °F 90% 29.99 in 10.0 mi SSE 10.4 mph - N/A   Clear
9:53 PM 57.9 °F 55.9 °F 93% 30.03 in 10.0 mi SSE 4.6 mph - N/A   Clear
10:53 PM 57.0 °F 55.9 °F 96% 30.03 in 10.0 mi Calm Calm - N/A   Clear
11:53 PM 57.0 °F 55.9 °F 96% 30.04 in 10.0 mi South 5.8 mph - N/A   Partly Cloudy